Location: Dompnac
(44.5644°N, 4.1026°E)
Time: 02:37:38
(UTC+00:00)

USA 234 - Pass Details

Date: 24 January 2021
Orbit: 1100 x 1107 km, 123.0° (Epoch: 01 March)

Event Time Altitude Azimuth Distance (km) Brightness Sun altitude
Exits shadow 17:29:28 - 57° (ENE) 3,040 5.0 -8.7°
Reaches altitude 10° 17:29:42 10° 56° (NE) 2,964 4.9 -8.8°
Maximum altitude 17:35:11 30° 359° (N) 1,875 4.4 -9.7°
Drops below altitude 10° 17:40:40 10° 301° (WNW) 2,967 6.2 -10.6°
Sets 17:43:27 0° 291° (WNW) 3,926 7.1 -11.1°
